Miscellaneous Local Product
Issued by NWS Hastings, NE

Home | Current Version | Previous Version | Graphics & Text | Print | Product List | Glossary On
Versions: 1 2 3 4 5 6 7 8 9 10 11 12 13 14 15 16 17 18 19 20 21 22 23 24 25 26 27 28 29 30 31 32 33 34 35 36 37 38 39 40 41 42 43 44 45 46 47 48 49 50
422
AXUS43 KGID 192302
MISGRI

GID CWA HOURLY WEATHER ROUNDUP
NATIONAL WEATHER SERVICE HASTINGS NE
600 PM CDT THU APR 19 2018

NOTE: "FAIR" INDICATES FEW OR NO CLOUDS BELOW 12,000 FEET WITH NO
SIGNIFICANT WEATHER AND/OR OBSTRUCTIONS TO VISIBILITY.

...SOUTH CENTRAL NEBRASKA...

CITY           SKY/WX    TMP DP  RH WIND       PRES   REMARKS
GRAND ISLAND   CLOUDY    57  26  30 E10       30.34F
KEARNEY        SUNNY     56  26  31 E15       30.32F
HASTINGS       CLOUDY    56  25  30 E10G21    30.32F
ORD            PTSUNNY   53  23  31 E13       30.32F
YORK             N/A     57  25  28 E3        30.34F
AURORA         CLOUDY    57  24  27 SE9       30.34F
LEXINGTON      PTSUNNY   57  26  30 SE14G20   30.30F
HOLDREGE       CLOUDY    56  28  33 SE10      30.30F
HEBRON         SUNNY     58  24  26 SE8       30.34F

...NEBRASKA PANHANDLE...

CITY           SKY/WX    TMP DP  RH WIND       PRES   REMARKS
CHADRON        MOSUNNY   60  31  33 S23G31    30.13F
ALLIANCE       PTSUNNY   57  31  37 SE23G33   30.15F
SCOTTSBLUFF    PTSUNNY   61  30  31 SE26G35   30.09F
SIDNEY         PTSUNNY   60  27  28 SE24G38   30.14F

...WESTERN AND NORTH CENTRAL NEBRASKA...

CITY           SKY/WX    TMP DP  RH WIND       PRES   REMARKS
VALENTINE      MOSUNNY   56  27  32 SE16G25   30.27F
AINSWORTH      MOSUNNY   53  24  32 SE16      30.29F
ONEILL         PTSUNNY   52  25  35 E12       30.36F
BROKEN BOW     PTSUNNY   55  27  34 SE15      30.29F
IMPERIAL       MOSUNNY   61  27  27 E28G36    30.20F
NORTH PLATTE   MOSUNNY   59  29  31 SE18      30.26F
MCCOOK         MOSUNNY   59  27  29 SE14G23   30.26F

...EASTERN NEBRASKA...

CITY           SKY/WX    TMP DP  RH WIND       PRES   REMARKS
NORFOLK        SUNNY     53  22  29 E7        30.36F
SO SIOUX CITY  SUNNY     51  36  56 NE14      30.41F
TEKAMAH        SUNNY     56  28  34 E8        30.38F
COLUMBUS       SUNNY     56  23  27 E7        30.37F
ALBION         MOSUNNY   56  23  28 E6        30.35F
OMAHA EPPLEY   MOSUNNY   58  27  30 E7        30.38F
MILLARD        SUNNY     58  31  35 SE3       30.38F
LINCOLN        SUNNY     59  25  27 VRB3      30.37F
NEBRASKA CITY  SUNNY     58  31  35 E3        30.38S
BEATRICE       SUNNY     60  29  32 SE8       30.35F
FALLS CITY     SUNNY     59  28  30 E13       30.36F

...NORTHERN KANSAS...

CITY           SKY/WX    TMP DP  RH WIND       PRES   REMARKS
GOODLAND       MOSUNNY   62  26  25 SE22G39   30.18F
HILL CITY      SUNNY     61  26  26 E16       30.28F
NORTON         CLEAR     59  27  29 E15       30.28F
PHILLIPSBURG   SUNNY     61  25  25 SE12      30.32S
SMITH CENTER   SUNNY     57  25  28 E10       30.32F
BELOIT         SUNNY     46  18  31 CALM      30.33F
HAYS           SUNNY     60  26  27 SE15G21   30.30F
RUSSELL        SUNNY     59  28  30 E10       30.30F
CONCORDIA      CLOUDY    58  25  28 E9G18     30.33F
SALINA         SUNNY     61  28  28 E9        30.33F
TOPEKA         SUNNY     60  30  32 NE8G20    30.34F



USA.gov is the U.S. government's official web portal to all federal, state and local government web resources and services.